Location: Étouvelles
(49.5207°N, 3.5808°E)
Time: 15:44:21
(UTC+00:00)

Lacrosse 4 Rocket - Pass Details

Date: 03 February 2023
Orbit: 536 x 608 km, 68.0° (Epoch: 25 March)

Event Time Altitude Azimuth Distance (km) Brightness Sun altitude
Rises 19:09:58 0° 331° (NNW) 2,863 5.4 -23.8°
Reaches altitude 10° 19:13:28 10° 0° (N) 1,941 4.1 -24.4°
Enters shadow 19:13:45 11° 4° (N) 1,895 4.0 -24.4°
